Zurück zum Katalog

SL-12 DEB

LostHEO
NORAD 34801·DEBRIS·🇷🇺 Russia

Gestartet Apr 4, 1991 von Baikonur Cosmodrome

Loading…

Nächste Überflüge (nächste 24 Stunden)

TLE

VeraltetSource: Space-Track

Epoche: Mar 29, 2011, 09:58 UTC

1 34801U 91025R   11088.41583846  .00002650  00000-0  92328-2 0  9999
2 34801  64.9061 239.2898 5645951   0.4157 349.9275  4.32246059 32095

Verfolge SL-12 DEB in Echtzeit mit AllMySat

Download on the App Store